When you browse on this site, cookies collect data to enhance your experience and personalize the content and advertising you see.
Visit our Privacy Policy to learn more. By continuing to use the site, you agree to this use of cookies and data.
  • en France
  • Liste des pays
  • À 7 jours
  • Température de l'eau
  • Carte satellitaire
  • Carte météo
  • Widgets météo
  • user-avatar
    Se connecter

    Météo par heure à Galata

    Ce jour, 16 Février, Samedi

    Heure Température Précipitation Vent Pression Humidité
    00:00 +1°C° 0 mm 6 m/s 766 mmHg 76%
    01:00 -1°C° 0 mm 6 m/s 766 mmHg 78%
    02:00 -1°C° 0 mm 6 m/s 766 mmHg 80%
    03:00 -1°C° 0 mm 6 m/s 766 mmHg 81%
    04:00 -2°C° 0 mm 6 m/s 766 mmHg 82%
    05:00 -1°C° 0 mm 5 m/s 766 mmHg 83%
    06:00 -1°C° 0 mm 5 m/s 766 mmHg 83%
    07:00 -1°C° 0 mm 5 m/s 766 mmHg 84%
    08:00 0°C° 0 mm 5 m/s 766 mmHg 84%
    09:00 +1°C° 0 mm 6 m/s 766 mmHg 78%
    10:00 +2°C° 0 mm 6 m/s 766 mmHg 73%
    11:00 +3°C° 0 mm 6 m/s 766 mmHg 67%
    12:00 +5°C° 0 mm 5 m/s 766 mmHg 65%
    13:00 +6°C° 0 mm 5 m/s 766 mmHg 62%
    14:00 +7°C° 0 mm 5 m/s 766 mmHg 59%
    15:00 +7°C° 0 mm 4 m/s 766 mmHg 61%
    16:00 +6°C° 0 mm 4 m/s 765 mmHg 63%
    17:00 +6°C° 0 mm 4 m/s 765 mmHg 65%
    18:00 +5°C° 0 mm 4 m/s 765 mmHg 68%
    19:00 +5°C° 0 mm 3 m/s 765 mmHg 71%
    20:00 +4°C° 0 mm 3 m/s 765 mmHg 75%
    21:00 +4°C° 0 mm 3 m/s 765 mmHg 75%
    22:00 +3°C° 0 mm 3 m/s 765 mmHg 75%
    23:00 +3°C° 0 mm 3 m/s 765 mmHg 76%

    Demain, 17 Février, Dimanche

    Heure Température Précipitation Vent Pression Humidité
    00:00 +3°C° 0 mm 3 m/s 765 mmHg 75%
    01:00 +3°C° 0 mm 3 m/s 765 mmHg 75%
    02:00 +2°C° 0 mm 3 m/s 765 mmHg 75%
    03:00 +2°C° 0 mm 3 m/s 765 mmHg 76%
    04:00 +2°C° 0 mm 3 m/s 764 mmHg 77%
    05:00 +2°C° 0 mm 3 m/s 764 mmHg 78%
    06:00 +2°C° 0 mm 3 m/s 764 mmHg 77%
    07:00 +3°C° 0 mm 2 m/s 764 mmHg 76%
    08:00 +3°C° 0 mm 2 m/s 764 mmHg 76%
    09:00 +5°C° 0 mm 2 m/s 764 mmHg 68%
    10:00 +7°C° 0 mm 2 m/s 764 mmHg 61%
    11:00 +8°C° 0 mm 2 m/s 764 mmHg 54%
    12:00 +9°C° 0 mm 2 m/s 764 mmHg 52%
    13:00 +10°C° 0 mm 2 m/s 763 mmHg 50%
    14:00 +13°C° 0 mm 1 m/s 763 mmHg 48%
    15:00 +12°C° 0 mm 1 m/s 763 mmHg 50%
    16:00 +12°C° 0 mm 1 m/s 762 mmHg 53%
    17:00 +12°C° 0 mm 1 m/s 762 mmHg 56%
    18:00 +10°C° 0 mm 2 m/s 762 mmHg 59%
    19:00 +9°C° 0 mm 2 m/s 762 mmHg 62%
    20:00 +8°C° 0 mm 2 m/s 762 mmHg 64%
    21:00 +7°C° 0 mm 2 m/s 762 mmHg 65%
    22:00 +7°C° 0 mm 2 m/s 762 mmHg 66%
    23:00 +6°C° 0 mm 2 m/s 762 mmHg 67%

    Après-demain, 18 Février, Lundi

    Heure Température Précipitation Vent Pression Humidité
    00:00 +6°C° 0 mm 2 m/s 762 mmHg 66%
    01:00 +5°C° 0 mm 3 m/s 762 mmHg 66%
    02:00 +5°C° 0 mm 3 m/s 762 mmHg 66%
    03:00 +5°C° 0 mm 3 m/s 761 mmHg 66%
    04:00 +4°C° 0 mm 3 m/s 761 mmHg 67%
    05:00 +4°C° 0 mm 3 m/s 761 mmHg 67%
    06:00 +4°C° 0 mm 3 m/s 761 mmHg 68%
    07:00 +4°C° 0 mm 3 m/s 762 mmHg 69%
    08:00 +4°C° 0 mm 3 m/s 762 mmHg 70%
    09:00 +7°C° 0 mm 3 m/s 762 mmHg 65%
    10:00 +9°C° 0 mm 2 m/s 762 mmHg 60%
    11:00 +10°C° 0 mm 2 m/s 762 mmHg 55%
    12:00 +12°C° 0 mm 2 m/s 762 mmHg 53%
    13:00 +13°C° 0 mm 1 m/s 762 mmHg 50%
    14:00 +14°C° 0 mm 1 m/s 762 mmHg 47%
    15:00 +14°C° 0 mm 1 m/s 762 mmHg 51%
    16:00 +13°C° 0 mm 2 m/s 762 mmHg 54%
    17:00 +12°C° 0 mm 2 m/s 761 mmHg 57%
    18:00 +10°C° 0 mm 2 m/s 762 mmHg 63%
    19:00 +9°C° 0 mm 2 m/s 762 mmHg 69%
    20:00 +8°C° 0 mm 2 m/s 762 mmHg 75%
    21:00 +9°C° 0 mm 1 m/s 762 mmHg 78%
    22:00 +8°C° 0 mm 1 m/s 763 mmHg 80%
    23:00 +8°C° 0 mm 1 m/s 763 mmHg 82%

    19 Février, Mardi

    Heure Température Précipitation Vent Pression Humidité
    00:00 +8°C° 0 mm 1 m/s 763 mmHg 83%
    01:00 +7°C° 0 mm 1 m/s 763 mmHg 84%
    02:00 +7°C° 0 mm 1 m/s 763 mmHg 85%
    03:00 +7°C° 0 mm 1 m/s 763 mmHg 86%
    04:00 +7°C° 0 mm 1 m/s 763 mmHg 87%
    05:00 +7°C° 0 mm 1 m/s 763 mmHg 87%
    06:00 +7°C° 0 mm 1 m/s 763 mmHg 88%
    07:00 +6°C° 0 mm 2 m/s 763 mmHg 89%
    08:00 +6°C° 0 mm 2 m/s 763 mmHg 90%
    09:00 +8°C° 0 mm 3 m/s 763 mmHg 85%
    10:00 +9°C° 0 mm 3 m/s 764 mmHg 80%
    11:00 +10°C° 0 mm 4 m/s 764 mmHg 75%
    12:00 +10°C° 0 mm 4 m/s 763 mmHg 75%
    13:00 +10°C° 0 mm 4 m/s 763 mmHg 74%
    14:00 +10°C° 0 mm 4 m/s 763 mmHg 74%
    15:00 +10°C° 0 mm 4 m/s 762 mmHg 75%
    16:00 +10°C° 0 mm 3 m/s 762 mmHg 77%
    17:00 +9°C° 0 mm 3 m/s 762 mmHg 78%
    18:00 +9°C° 0 mm 3 m/s 762 mmHg 82%
    19:00 +8°C° 0 mm 3 m/s 762 mmHg 85%
    20:00 +7°C° 0 mm 3 m/s 762 mmHg 89%
    21:00 +7°C° 0 mm 3 m/s 762 mmHg 90%
    22:00 +7°C° 0 mm 3 m/s 762 mmHg 91%
    23:00 +7°C° 0 mm 3 m/s 762 mmHg 91%

    20 Février, Mercredi

    Heure Température Précipitation Vent Pression Humidité
    00:00 +7°C° 0 mm 3 m/s 761 mmHg 92%
    01:00 +7°C° 0 mm 3 m/s 761 mmHg 92%
    02:00 +7°C° 0 mm 3 m/s 761 mmHg 93%
    03:00 +5°C° 0 mm 3 m/s 761 mmHg 93%
    04:00 +5°C° 0 mm 3 m/s 761 mmHg 92%
    05:00 +6°C° 0 mm 2 m/s 760 mmHg 92%
    06:00 +6°C° 0 mm 2 m/s 760 mmHg 90%
    07:00 +6°C° 0 mm 2 m/s 760 mmHg 88%
    08:00 +6°C° 0 mm 2 m/s 761 mmHg 87%
    09:00 +8°C° 0 mm 2 m/s 761 mmHg 78%
    10:00 +10°C° 0 mm 2 m/s 761 mmHg 69%
    11:00 +13°C° 0 mm 2 m/s 761 mmHg 60%
    12:00 +14°C° 0 mm 2 m/s 761 mmHg 55%
    13:00 +14°C° 0 mm 3 m/s 760 mmHg 51%
    14:00 +16°C° 0 mm 3 m/s 760 mmHg 46%
    15:00 +14°C° 0 mm 3 m/s 760 mmHg 48%
    16:00 +15°C° 0 mm 2 m/s 760 mmHg 50%
    17:00 +14°C° 0 mm 2 m/s 760 mmHg 52%
    18:00 +13°C° 0 mm 2 m/s 760 mmHg 55%
    19:00 +12°C° 0 mm 2 m/s 761 mmHg 59%
    20:00 +10°C° 0 mm 2 m/s 761 mmHg 63%
    21:00 +9°C° 0 mm 2 m/s 761 mmHg 65%
    22:00 +9°C° 0 mm 2 m/s 761 mmHg 68%
    23:00 +8°C° 0 mm 2 m/s 761 mmHg 70%

    21 Février, Jeudi

    Heure Température Précipitation Vent Pression Humidité
    00:00 +8°C° 0 mm 2 m/s 761 mmHg 72%
    01:00 +8°C° 0 mm 2 m/s 761 mmHg 74%
    02:00 +7°C° 0 mm 3 m/s 761 mmHg 75%
    03:00 +7°C° 0 mm 3 m/s 761 mmHg 76%
    04:00 +7°C° 0 mm 3 m/s 761 mmHg 77%
    05:00 +5°C° 0 mm 3 m/s 761 mmHg 78%
    06:00 +5°C° 0 mm 3 m/s 762 mmHg 78%
    07:00 +5°C° 0 mm 3 m/s 762 mmHg 78%
    08:00 +5°C° 0 mm 3 m/s 762 mmHg 77%
    09:00 +8°C° 0 mm 2 m/s 762 mmHg 71%
    10:00 +10°C° 0 mm 2 m/s 762 mmHg 64%
    11:00 +12°C° 0 mm 2 m/s 762 mmHg 57%
    12:00 +13°C° 0 mm 2 m/s 762 mmHg 55%
    13:00 +14°C° 0 mm 2 m/s 762 mmHg 53%
    14:00 +14°C° 0 mm 2 m/s 761 mmHg 51%
    15:00 +14°C° 0 mm 2 m/s 761 mmHg 53%
    16:00 +14°C° 0 mm 2 m/s 761 mmHg 55%
    17:00 +14°C° 0 mm 2 m/s 761 mmHg 58%
    18:00 +13°C° 0 mm 2 m/s 761 mmHg 61%
    19:00 +10°C° 0 mm 2 m/s 761 mmHg 65%
    20:00 +9°C° 0 mm 3 m/s 761 mmHg 69%
    21:00 +9°C° 0 mm 2 m/s 761 mmHg 69%
    22:00 +9°C° 0 mm 2 m/s 760 mmHg 69%
    23:00 +9°C° 0 mm 2 m/s 760 mmHg 69%
    Voir plus